Wind_Speed
16 17 17 17 17 17 17 17 18 17 16 16 16 15 15 16 16 16 16 16 16 17 17 17 18 19 19 19 19 19 18 19 19 20 20 20 21 20 20 21 22 23 23
17 17 17 18 18 18 18 19 18 17 16 16 15 15 15 16 16 16 16 17 18 18 18 19 19 19 20 20 20 20 20 20 20 21 21 21 21 21 22 22 22 24 24
17 17 17 18 18 18 18 18 19 18 17 16 16 16 16 16 16 17 17 18 19 19 19 19 19 19 20 20 21 21 21 21 21 21 21 21 21 23 23 24 23 24 23
18 17 17 18 18 18 19 19 19 19 18 17 17 17 17 17 18 18 17 17 18 18 18 18 18 19 20 21 21 21 22 21 21 21 21 21 22 23 24 25 25 24 24
19 18 18 18 18 19 19 19 18 18 17 18 17 17 17 17 17 17 17 17 18 18 18 18 18 19 21 21 21 22 23 23 23 23 22 22 22 23 24 25 26 26 26
20 19 20 20 19 19 19 19 18 18 19 19 17 17 17 18 18 18 19 19 19 19 18 18 19 20 21 21 21 22 23 24 24 25 24 24 24 24 25 25 25 25 25
20 20 20 20 20 20 20 19 19 19 19 18 18 17 18 18 19 19 20 21 20 20 20 20 20 21 21 22 22 23 24 24 24 25 25 25 25 26 26 25 25 24 24
20 20 20 20 20 20 21 21 19 19 18 18 18 18 19 19 20 20 21 21 22 21 20 21 21 22 23 23 23 23 24 24 25 26 26 26 26 26 26 26 25 25 24
21 21 21 21 20 20 21 21 20 19 19 19 19 20 20 20 21 21 21 21 22 23 22 23 23 24 24 24 24 24 24 25 25 25 25 26 26 27 27 27 27 26 26
22 22 21 20 21 21 21 21 20 19 20 20 20 20 21 21 21 21 21 22 23 23 24 24 25 25 26 26 26 25 25 26 26 26 26 27 28 28 29 29 28 27 28
22 22 22 21 21 21 22 21 20 20 20 20 21 21 21 22 22 22 23 23 23 24 25 26 26 27 27 27 27 26 27 27 28 28 27 28 29 30 29 29 28 28 29
22 22 21 21 21 22 21 21 21 21 21 21 22 22 22 23 23 23 24 24 25 25 26 27 27 27 28 28 28 28 27 27 27 27 28 28 28 28 29 29 30 30 30
22 21 21 22 22 22 22 22 22 21 21 22 22 23 24 24 24 24 25 25 26 26 27 28 27 27 27 28 28 28 28 27 27 27 28 28 29 28 29 30 31 31 31
21 21 21 22 22 22 22 22 22 21 22 22 23 24 24 24 25 25 25 26 26 26 26 27 27 27 27 27 27 28 28 27 28 28 29 29 29 29 30 30 31 31 32
21 21 22 22 22 22 23 22 22 23 22 23 24 24 25 25 25 25 25 26 26 26 26 27 27 26 26 27 26 26 27 27 28 28 29 29 29 29 29 29 30 30 31
22 22 23 23 23 23 23 22 23 23 23 23 24 23 24 25 25 25 25 26 27 27 27 26 26 26 26 26 26 27 27 27 27 28 28 27 27 27 28 29 29 29 30
22 22 23 24 24 23 23 23 23 24 24 24 23 23 23 23 24 24 25 25 26 26 25 25 25 25 26 26 26 26 27 26 26 26 27 27 27 27 28 28 28 29 29
24 23 23 24 24 24 24 24 24 24 24 24 24 24 24 24 25 25 25 26 25 25 25 24 24 24 25 25 26 25 26 26 26 26 26 26 26 26 27 27 28 29 29
24 24 24 24 24 25 25 25 25 25 25 25 25 25 25 25 25 25 26 25 25 24 24 24 24 24 25 26 26 26 26 26 26 27 26 26 26 26 26 27 28 29 30
24 23 23 23 23 24 24 25 25 25 26 26 26 26 26 26 25 26 25 25 25 25 24 24 24 25 26 27 27 26 26 27 27 27 27 27 26 26 27 27 28 28 29
23 24 23 24 24 24 24 24 25 25 26 26 26 26 26 25 26 26 26 26 26 25 25 25 25 26 26 27 26 27 27 27 27 27 27 28 28 28 28 28 27 27 27
24 23 23 23 23 23 24 25 25 25 25 26 26 25 26 26 26 26 26 26 26 26 26 27 27 27 27 26 26 27 27 26 26 27 27 28 28 28 28 28 27 27 27
23 23 23 23 23 24 25 25 25 25 25 25 25 25 25 25 25 25 26 27 27 27 27 27 27 27 26 26 26 26 26 26 26 26 26 26 26 26 26 26 27 27 28
25 25 25 25 26 26 26 26 25 25 24 24 24 25 24 24 24 25 27 28 28 28 27 26 26 26 26 26 26 27 27 26 26 26 26 25 25 25 26 26 27 27 27
26 27 27 26 26 26 26 25 25 25 24 24 24 25 24 25 25 26 27 27 28 27 26 25 25 25 26 27 27 27 27 27 27 26 25 25 25 26 27 27 26 27 27
27 27 27 27 27 27 26 25 26 26 26 26 26 26 26 26 26 26 26 26 26 25 24 24 24 25 26 27 27 27 27 27 26 26 25 25 25 26 26 26 26 26 27
Wind_Direction
285 284 284 285 288 291 292 295 296 296 297 298 297 296 297 297 297 292 288 287 284 283 282 282 281 280 278 277 277 276 273 271 272 270 268 266 264 263 261 260 260 260 261
282 281 282 283 286 289 292 294 294 292 293 297 299 297 296 295 296 291 288 286 285 285 284 283 281 279 277 276 275 273 273 271 272 271 270 268 266 264 262 261 261 261 260
277 279 283 284 283 285 290 293 294 290 290 293 295 294 293 293 294 291 289 289 287 285 284 283 281 279 278 276 274 272 272 271 272 271 270 268 266 265 263 262 262 262 257
277 277 281 282 283 285 288 291 292 289 288 289 290 290 291 293 294 293 292 291 290 288 286 284 284 283 282 277 274 271 272 272 271 270 270 269 269 268 265 264 263 261 259
278 279 281 280 281 285 285 286 286 285 287 287 289 289 290 292 293 290 289 290 291 289 285 284 287 286 284 280 277 273 273 272 270 271 271 269 269 268 267 265 265 263 261
279 279 280 279 279 280 280 281 283 283 286 286 287 290 290 290 290 288 288 289 290 287 283 283 286 288 286 283 280 277 275 274 272 271 269 269 269 268 267 266 266 264 263
282 279 280 280 280 280 281 284 283 282 284 285 285 288 289 287 288 286 286 288 289 288 283 282 286 287 286 285 282 280 279 277 275 271 268 268 268 267 267 266 265 263 264
285 284 284 284 283 283 283 285 284 283 284 284 282 285 286 286 287 287 286 286 289 288 288 286 286 286 286 284 283 281 279 278 278 275 271 268 267 267 266 266 264 262 263
286 287 287 286 284 284 284 283 282 281 282 282 282 284 285 287 290 289 289 289 288 288 288 285 284 285 285 284 285 284 281 279 279 277 274 269 269 268 267 266 265 263 263
286 287 289 288 287 285 285 281 278 278 280 280 279 282 287 290 292 290 290 290 289 287 287 287 287 286 284 283 283 282 280 278 277 275 273 273 271 270 269 268 266 264 265
285 287 287 287 286 283 282 278 278 277 277 279 279 282 287 290 291 291 289 290 290 288 288 289 288 286 286 286 285 283 282 278 277 276 274 273 271 270 271 269 268 266 265
286 287 285 285 284 282 278 277 279 276 278 278 280 282 287 290 291 292 290 290 290 289 289 290 289 288 287 287 285 283 282 281 279 277 276 273 273 272 270 268 268 268 266
286 287 285 285 284 282 277 278 277 279 280 280 280 283 287 290 290 291 291 292 291 291 290 290 290 289 288 287 286 283 282 281 280 279 277 275 274 273 270 269 269 268 267
283 284 284 284 283 283 281 279 278 281 281 281 283 284 286 289 291 291 292 292 292 292 291 291 291 291 289 287 285 285 284 283 282 281 280 278 276 274 273 271 271 269 268
282 282 283 285 286 285 285 283 282 285 285 284 283 283 284 288 290 289 291 293 293 294 293 292 291 290 289 288 287 287 287 287 286 285 282 281 277 275 274 272 272 270 269
285 284 284 285 286 286 286 285 285 288 288 287 288 286 286 288 289 289 291 292 294 294 294 292 290 289 289 289 289 289 289 289 288 286 285 283 279 275 273 273 272 271 270
286 286 285 286 287 286 285 285 286 287 288 288 287 287 290 292 291 292 293 293 294 294 294 293 289 288 288 289 290 290 290 290 291 289 287 284 281 277 274 272 273 273 271
284 285 286 288 287 287 286 286 286 286 285 286 286 287 290 291 291 291 292 294 294 293 293 293 291 289 289 289 290 292 291 290 290 289 288 287 284 280 278 275 274 273 272
284 285 286 287 287 288 288 287 287 286 286 286 286 287 289 290 290 291 292 293 292 292 292 292 291 290 292 292 293 293 290 289 289 288 287 286 285 284 282 279 277 275 273
282 284 285 285 285 287 288 285 284 285 285 285 285 286 288 289 289 290 291 292 291 291 292 292 294 293 294 294 293 293 291 289 289 289 287 286 285 285 284 282 278 276 274
281 284 284 282 282 284 285 283 284 285 284 284 284 285 287 287 288 288 290 291 291 291 293 295 295 295 293 293 293 292 291 291 290 289 288 287 285 284 284 282 280 276 275
280 283 284 283 284 285 285 286 286 285 283 283 283 285 286 287 287 288 290 292 293 294 295 295 294 294 292 292 293 293 293 292 292 292 291 289 287 285 283 281 279 278 276
281 283 285 284 286 287 289 291 288 286 285 282 281 283 287 288 289 291 293 294 295 295 294 294 294 293 292 293 294 296 296 294 293 293 293 291 289 287 284 281 279 278 277
281 283 285 287 287 289 291 292 289 288 287 286 284 285 288 289 291 292 293 294 295 295 293 292 293 292 292 293 294 296 296 295 293 292 292 290 287 286 284 282 280 278 277
281 282 285 286 286 287 290 291 291 288 287 286 287 288 288 288 290 292 293 294 295 294 292 291 291 292 294 294 294 295 295 294 293 292 292 289 287 286 286 284 282 280 279
280 282 283 283 284 287 288 288 289 288 287 287 287 286 286 286 288 291 293 295 295 294 291 290 290 291 294 295 295 296 296 294 294 294 293 292 291 289 287 285 283 281 279
Height
5849 5848 5847 5847 5846 5845 5845 5844 5843 5842 5840 5839 5838 5837 5836 5835 5834 5834 5833 5833 5832 5832 5831 5831 5830 5830 5830 5830 5830 5830 5830 5830 5830 5831 5831 5831 5832 5833 5833 5834 5834 5835 5836
5844 5843 5843 5842 5842 5841 5840 5839 5838 5837 5836 5835 5834 5834 5833 5832 5831 5830 5829 5828 5828 5827 5827 5826 5826 5825 5825 5825 5825 5825 5825 5825 5825 5825 5826 5826 5827 5827 5828 5828 5829 5830 5830
5840 5839 5839 5838 5838 5837 5836 5835 5834 5833 5832 5831 5830 5830 5829 5828 5827 5826 5825 5824 5823 5823 5822 5821 5821 5820 5820 5819 5819 5819 5819 5820 5820 5820 5820 5821 5821 5821 5822 5822 5823 5824 5824
5836 5835 5834 5834 5833 5832 5831 5830 5829 5829 5828 5827 5826 5825 5824 5824 5823 5821 5820 5819 5818 5817 5817 5816 5816 5815 5815 5814 5814 5814 5814 5814 5814 5814 5814 5815 5815 5815 5816 5816 5816 5817 5818
5832 5831 5830 5829 5828 5827 5826 5826 5824 5824 5823 5822 5821 5820 5820 5819 5818 5817 5816 5815 5814 5813 5812 5811 5811 5810 5809 5809 5808 5808 5808 5808 5808 5808 5808 5809 5809 5809 5810 5810 5810 5810 5810
5828 5827 5825 5824 5823 5822 5821 5820 5820 5819 5819 5818 5817 5816 5815 5814 5813 5812 5811 5810 5809 5808 5807 5806 5805 5805 5804 5803 5802 5802 5802 5802 5802 5802 5802 5802 5803 5803 5803 5803 5803 5803 5803
5823 5822 5820 5819 5818 5817 5816 5815 5815 5814 5814 5813 5812 5811 5810 5809 5809 5808 5807 5805 5803 5802 5802 5801 5800 5799 5799 5798 5797 5796 5795 5795 5795 5795 5795 5795 5795 5795 5795 5796 5796 5796 5796
5818 5816 5815 5813 5812 5811 5810 5809 5809 5808 5808 5808 5808 5807 5806 5805 5804 5803 5801 5800 5798 5797 5797 5796 5794 5793 5792 5792 5791 5790 5789 5788 5787 5787 5787 5787 5787 5788 5788 5788 5789 5789 5790
5812 5811 5810 5808 5807 5806 5804 5804 5803 5803 5803 5803 5803 5802 5801 5800 5798 5797 5796 5795 5794 5792 5791 5790 5788 5787 5786 5785 5784 5783 5782 5781 5780 5780 5780 5780 5780 5780 5780 5780 5781 5782 5782
5807 5805 5804 5802 5801 5800 5799 5798 5798 5797 5797 5797 5797 5797 5796 5794 5793 5791 5790 5789 5788 5786 5785 5783 5782 5780 5779 5778 5777 5776 5775 5774 5773 5772 5772 5772 5771 5772 5772 5772 5773 5773 5774
5802 5800 5798 5797 5795 5794 5792 5792 5792 5792 5792 5792 5792 5791 5790 5789 5787 5786 5784 5783 5781 5780 5778 5776 5774 5773 5772 5771 5769 5768 5767 5766 5765 5765 5764 5764 5763 5763 5764 5764 5764 5765 5765
5796 5794 5793 5791 5790 5788 5787 5786 5786 5786 5786 5786 5786 5785 5784 5783 5781 5779 5777 5776 5774 5773 5771 5769 5767 5765 5764 5762 5761 5760 5759 5758 5757 5757 5756 5755 5755 5755 5755 5755 5756 5756 5757
5790 5789 5787 5786 5784 5782 5781 5780 5780 5780 5780 5780 5780 5779 5778 5776 5774 5772 5770 5769 5767 5765 5763 5761 5759 5757 5756 5754 5753 5752 5751 5750 5749 5749 5748 5747 5747 5746 5746 5746 5747 5747 5747
5784 5783 5782 5781 5779 5777 5776 5775 5775 5774 5774 5774 5773 5772 5771 5769 5767 5765 5764 5762 5760 5758 5756 5754 5752 5750 5748 5746 5745 5744 5743 5742 5741 5740 5739 5738 5738 5737 5737 5737 5737 5737 5738
5778 5777 5776 5775 5774 5772 5771 5769 5768 5768 5768 5767 5767 5765 5764 5762 5760 5759 5757 5755 5753 5751 5749 5747 5745 5742 5741 5739 5738 5737 5735 5734 5733 5731 5730 5729 5728 5728 5728 5728 5728 5728 5728
5772 5771 5770 5769 5768 5767 5766 5764 5763 5763 5762 5761 5760 5758 5757 5755 5753 5752 5750 5748 5746 5744 5742 5739 5738 5736 5734 5732 5731 5729 5728 5726 5724 5723 5722 5720 5720 5719 5719 5719 5719 5719 5719
5766 5765 5763 5763 5762 5761 5760 5759 5758 5757 5755 5754 5753 5751 5750 5748 5747 5745 5743 5741 5739 5737 5735 5732 5731 5729 5727 5725 5724 5722 5720 5718 5716 5715 5714 5713 5711 5710 5710 5710 5709 5709 5709
5759 5758 5757 5756 5755 5754 5753 5752 5751 5749 5748 5747 5746 5744 5743 5742 5740 5738 5737 5735 5733 5731 5728 5726 5724 5722 5720 5718 5716 5714 5712 5711 5709 5707 5706 5705 5703 5702 5701 5700 5700 5700 5700
5753 5752 5751 5750 5749 5747 5746 5745 5744 5742 5741 5740 5738 5737 5736 5735 5733 5732 5730 5728 5726 5724 5722 5720 5718 5716 5714 5711 5709 5707 5705 5703 5701 5700 5698 5697 5695 5694 5693 5692 5692 5692 5691
5747 5746 5744 5743 5742 5740 5739 5738 5736 5735 5734 5732 5731 5730 5729 5727 5726 5725 5723 5721 5719 5717 5715 5713 5711 5709 5706 5704 5702 5699 5697 5696 5694 5692 5690 5689 5687 5686 5684 5684 5683 5683 5682
5740 5738 5737 5736 5735 5734 5732 5731 5729 5728 5726 5725 5724 5723 5721 5720 5719 5717 5716 5714 5712 5709 5707 5706 5704 5701 5699 5697 5694 5692 5690 5688 5686 5684 5682 5680 5679 5677 5676 5675 5674 5674 5673
5733 5731 5730 5729 5728 5727 5725 5724 5722 5721 5719 5718 5717 5715 5714 5712 5711 5710 5708 5706 5704 5702 5700 5698 5696 5694 5691 5689 5687 5684 5682 5680 5678 5676 5674 5672 5670 5668 5667 5666 5666 5665 5664
5726 5725 5724 5723 5722 5720 5718 5717 5715 5713 5712 5710 5709 5708 5707 5705 5704 5703 5701 5699 5697 5694 5692 5690 5688 5686 5684 5681 5679 5677 5674 5672 5670 5668 5666 5664 5662 5660 5659 5658 5657 5656 5656
5718 5718 5717 5716 5715 5713 5711 5709 5707 5706 5705 5703 5702 5700 5699 5698 5696 5695 5693 5691 5689 5687 5684 5682 5680 5678 5676 5674 5672 5669 5667 5664 5662 5660 5658 5656 5654 5653 5651 5650 5649 5648 5647
5711 5710 5709 5708 5707 5706 5704 5702 5700 5698 5697 5696 5695 5693 5691 5690 5689 5687 5685 5683 5681 5679 5677 5675 5673 5671 5669 5667 5664 5662 5659 5657 5655 5653 5651 5649 5647 5645 5643 5642 5641 5639 5638
5702 5701 5700 5700 5699 5698 5696 5694 5693 5691 5690 5689 5687 5685 5684 5682 5681 5679 5678 5675 5674 5672 5669 5668 5666 5663 5661 5659 5656 5654 5652 5649 5647 5645 5643 5641 5639 5637 5635 5634 5632 5631 5630